Radiation Dose at Monitoring Post of Fukushima Daini Nuclear Power Station
Date,Time,MP-1(microSv/h),MP-2(microSv/h),MP-3(microSv/h),MP-4(microSv/h),MP-5(microSv/h),MP-6(microSv/h),MP-7(microSv/h),Wind Direction,Wind Velocity(m/s),Rain
2023/05/16,00:00,0.147,0.132,0.208,0.201,0.210,0.116,0.076,north,5.4,No
2023/05/16,00:10,0.146,0.131,0.210,0.202,0.209,0.117,0.076,north-northwest,5.1,No
2023/05/16,00:20,0.146,0.131,0.209,0.201,0.211,0.118,0.076,north-northwest,7.7,No
2023/05/16,00:30,0.146,0.131,0.210,0.203,0.209,0.118,0.075,northwest,8.1,No
2023/05/16,00:40,0.147,0.130,0.210,0.201,0.211,0.118,0.076,north-northwest,7.6,No
2023/05/16,00:50,0.146,0.131,0.209,0.202,0.210,0.118,0.076,north-northwest,8.3,No
2023/05/16,01:00,0.145,0.131,0.209,0.201,0.209,0.117,0.076,northwest,8.1,No
2023/05/16,01:10,0.147,0.132,0.210,0.201,0.210,0.118,0.076,northwest,7.7,No
2023/05/16,01:20,0.147,0.132,0.209,0.202,0.210,0.118,0.075,north-northwest,8.3,No
2023/05/16,01:30,0.147,0.132,0.210,0.201,0.209,0.118,0.076,north-northwest,7.6,No
2023/05/16,01:40,0.146,0.132,0.209,0.202,0.209,0.117,0.075,north-northwest,6.9,No
2023/05/16,01:50,0.146,0.130,0.208,0.200,0.211,0.116,0.075,north-northwest,7.1,No
2023/05/16,02:00,0.146,0.132,0.209,0.203,0.209,0.117,0.076,north-northwest,6.8,No
2023/05/16,02:10,0.147,0.131,0.208,0.202,0.210,0.116,0.075,north-northwest,6.7,No
2023/05/16,02:20,0.145,0.132,0.209,0.201,0.209,0.117,0.076,north-northwest,8.3,No
2023/05/16,02:30,0.145,0.131,0.209,0.201,0.211,0.117,0.075,north-northwest,7.4,No
2023/05/16,02:40,0.146,0.131,0.209,0.200,0.208,0.117,0.076,north-northwest,6.6,No
2023/05/16,02:50,0.145,0.132,0.209,0.202,0.211,0.117,0.075,north-northwest,7.0,No
2023/05/16,03:00,0.147,0.131,0.208,0.200,0.208,0.117,0.075,north-northwest,7.7,No
2023/05/16,03:10,0.146,0.132,0.209,0.202,0.209,0.117,0.076,north-northwest,6.6,No
2023/05/16,03:20,0.146,0.131,0.209,0.200,0.209,0.117,0.077,north-northwest,6.3,No
2023/05/16,03:30,0.146,0.132,0.209,0.203,0.210,0.117,0.075,north-northwest,6.4,No
2023/05/16,03:40,0.147,0.131,0.209,0.201,0.209,0.117,0.075,north-northwest,6.1,No
2023/05/16,03:50,0.146,0.132,0.208,0.201,0.209,0.117,0.075,north-northwest,6.5,No
2023/05/16,04:00,0.146,0.132,0.210,0.201,0.210,0.117,0.076,north-northwest,6.4,No
2023/05/16,04:10,0.145,0.131,0.208,0.201,0.209,0.117,0.076,north-northwest,7.5,No
2023/05/16,04:20,0.146,0.132,0.209,0.201,0.210,0.117,0.075,north-northwest,7.8,No
2023/05/16,04:30,0.146,0.131,0.209,0.201,0.209,0.117,0.075,north-northwest,6.8,No
2023/05/16,04:40,0.146,0.132,0.208,0.202,0.211,0.117,0.076,northwest,7.5,No
2023/05/16,04:50,0.146,0.133,0.209,0.201,0.210,0.117,0.075,north-northwest,6.9,No
2023/05/16,05:00,0.145,0.132,0.207,0.201,0.209,0.117,0.077,north-northwest,6.6,No
2023/05/16,05:10,0.146,0.132,0.210,0.202,0.209,0.117,0.075,northwest,6.6,No
2023/05/16,05:20,0.145,0.132,0.208,0.201,0.210,0.116,0.076,northwest,7.4,No
2023/05/16,05:30,0.146,0.132,0.208,0.202,0.209,0.118,0.075,north-northwest,7.9,No
2023/05/16,05:40,0.145,0.131,0.209,0.201,0.209,0.117,0.075,north-northwest,6.9,No
2023/05/16,05:50,0.147,0.132,0.208,0.201,0.209,0.116,0.076,north-northwest,6.9,No
2023/05/16,06:00,0.146,0.132,0.208,0.201,0.208,0.117,0.075,north-northwest,7.0,No
2023/05/16,06:10,0.146,0.132,0.209,0.201,0.209,0.117,0.075,north-northwest,6.7,No
2023/05/16,06:20,0.145,0.131,0.208,0.200,0.208,0.116,0.075,north-northwest,6.1,No
2023/05/16,06:30,0.146,0.132,0.209,0.201,0.208,0.117,0.075,north-northwest,6.6,No
2023/05/16,06:40,0.145,0.131,0.207,0.201,0.209,0.117,0.075,north-northwest,6.7,No
2023/05/16,06:50,0.147,0.131,0.207,0.200,0.209,0.117,0.075,north-northwest,6.1,No
2023/05/16,07:00,0.146,0.130,0.208,0.201,0.208,0.117,0.075,north-northwest,6.3,No
2023/05/16,07:10,0.147,0.132,0.210,0.201,0.209,0.117,0.076,north-northwest,5.3,Yes
2023/05/16,07:20,0.145,0.132,0.207,0.200,0.210,0.116,0.075,northwest,6.3,No
2023/05/16,07:30,0.146,0.131,0.209,0.201,0.207,0.117,0.075,north-northwest,6.7,No
2023/05/16,07:40,0.145,0.131,0.208,0.201,0.210,0.116,0.075,north-northwest,6.2,No
2023/05/16,07:50,0.147,0.132,0.210,0.201,0.207,0.117,0.075,north-northwest,5.7,No
2023/05/16,08:00,0.145,0.130,0.207,0.200,0.209,0.115,0.075,north-northwest,7.6,No
2023/05/16,08:10,0.147,0.131,0.207,0.201,0.208,0.117,0.075,north-northwest,7.6,No
2023/05/16,08:20,0.145,0.131,0.208,0.200,0.207,0.116,0.075,north-northwest,8.5,No
2023/05/16,08:30,0.146,0.131,0.206,0.199,0.209,0.116,0.075,north-northwest,6.4,No
2023/05/16,08:40,0.146,0.132,0.209,0.201,0.207,0.117,0.074,north,7.3,No
2023/05/16,08:50,0.145,0.130,0.207,0.200,0.211,0.116,0.075,north,5.5,No
2023/05/16,09:00,0.146,0.132,0.207,0.201,0.207,0.117,0.075,north,6.8,No
2023/05/16,09:10,0.145,0.131,0.208,0.201,0.205,0.118,0.075,north,7.3,No
2023/05/16,09:20,0.146,0.131,0.207,0.199,0.209,0.117,0.075,north,7.2,No
2023/05/16,09:30,0.146,0.132,0.207,0.202,0.206,0.117,0.075,north,8.7,No
2023/05/16,09:40,0.146,0.130,0.209,0.200,-,0.117,0.075,north,7.7,No
2023/05/16,09:50,0.144,0.131,0.207,0.199,-,0.116,0.075,north,8.5,No
2023/05/16,10:00,0.146,0.130,0.210,0.202,-,0.117,0.074,north,8.1,No
2023/05/16,10:10,0.146,0.132,0.208,0.202,-,0.117,0.075,north,7.2,No
2023/05/16,10:20,0.146,0.131,0.207,0.199,-,0.116,0.075,north,8.1,No
2023/05/16,10:30,0.146,0.131,0.209,0.204,-,0.116,0.075,north,8.7,No
2023/05/16,10:40,0.145,0.131,0.209,0.202,-,0.117,0.075,north,7.5,No
2023/05/16,10:50,0.146,0.131,0.207,0.199,-,0.116,0.075,north,8.1,No
2023/05/16,11:00,0.145,0.132,0.208,0.203,-,0.117,0.075,north,7.2,No
2023/05/16,11:10,0.147,0.132,0.208,0.201,-,0.116,0.075,north,7.1,No
2023/05/16,11:20,0.146,0.131,0.208,0.200,-,0.116,0.076,north,6.4,No
2023/05/16,11:30,0.146,0.132,0.209,0.202,-,0.117,0.075,north,7.2,No
2023/05/16,11:40,0.147,0.131,0.209,0.202,-,0.117,0.075,north,7.3,No
2023/05/16,11:50,0.145,0.130,0.207,0.201,-,0.117,0.075,north,5.6,No
2023/05/16,12:00,0.146,0.131,0.210,0.199,-,0.116,0.074,north,5.5,No
2023/05/16,12:10,0.146,0.132,0.211,0.203,-,0.117,0.075,north-northeast,3.5,No
2023/05/16,12:20,0.146,0.131,0.209,0.203,-,0.118,0.075,north-northeast,5.3,No
2023/05/16,12:30,0.147,0.131,0.206,0.201,-,0.117,0.075,northeast,5.7,No
2023/05/16,12:40,0.146,0.130,0.210,0.201,-,0.116,0.074,north-northeast,6.8,No
2023/05/16,12:50,0.145,0.130,0.209,0.202,-,0.117,0.074,north-northeast,7.1,No
2023/05/16,13:00,0.146,0.131,0.209,0.203,-,0.117,0.075,north-northeast,6.1,No
2023/05/16,13:10,0.146,0.131,0.207,0.202,-,0.117,0.076,northeast,5.7,No
2023/05/16,13:20,0.146,0.131,0.211,0.202,-,0.117,0.075,northeast,5.3,No
2023/05/16,13:30,0.147,0.132,0.210,0.202,-,0.116,0.075,north-northeast,4.8,No
2023/05/16,13:40,0.147,0.131,0.208,0.202,-,0.117,0.075,north-northeast,3.8,No
2023/05/16,13:50,0.145,0.131,0.206,0.200,-,0.117,0.075,north-northeast,4.5,No
2023/05/16,14:00,0.147,0.132,0.210,0.201,-,0.117,0.074,north-northeast,5.4,No
2023/05/16,14:10,0.145,0.131,0.211,0.202,-,0.117,0.075,north-northeast,4.4,No
2023/05/16,14:20,0.146,0.131,0.209,0.203,-,0.117,0.076,north-northeast,4.5,No
2023/05/16,14:30,0.147,0.132,0.208,0.202,-,0.117,0.075,north-northeast,4.5,No
2023/05/16,14:40,0.146,0.132,0.211,0.203,-,0.117,0.075,northeast,3.5,No
2023/05/16,14:50,0.146,0.132,0.210,0.203,-,0.117,0.075,north-northeast,3.6,No
2023/05/16,15:00,0.146,0.132,0.208,0.201,-,0.117,0.075,north-northeast,5.1,No
2023/05/16,15:10,0.146,0.132,0.209,0.202,-,0.117,0.074,north-northeast,3.6,No
2023/05/16,15:20,0.146,0.132,0.211,0.204,-,0.117,0.075,north-northeast,2.8,No
2023/05/16,15:30,0.148,0.133,0.209,0.203,-,0.117,0.075,north-northeast,3.0,No
2023/05/16,15:40,0.146,0.131,0.209,0.201,-,0.117,0.075,north-northeast,3.4,No
2023/05/16,15:50,0.147,0.132,0.210,0.203,-,0.116,0.075,north-northeast,3.1,No
2023/05/16,16:00,0.147,0.131,0.211,0.203,-,0.117,0.075,northeast,3.4,No
2023/05/16,16:10,0.145,0.132,0.211,0.203,-,0.117,0.076,north-northeast,2.5,No
2023/05/16,16:20,0.146,0.132,0.210,0.203,0.210,0.116,0.076,north-northeast,2.5,No
2023/05/16,16:30,0.146,0.132,0.211,0.204,0.209,0.117,0.075,north-northeast,2.7,No
2023/05/16,16:40,0.145,0.133,0.209,0.205,0.208,0.117,0.075,north-northeast,2.1,No
2023/05/16,16:50,0.148,0.131,0.211,0.202,0.211,0.115,0.075,north-northeast,2.0,No
2023/05/16,17:00,0.145,0.132,0.210,0.203,0.210,0.117,0.076,north-northeast,1.4,No
2023/05/16,17:10,0.147,0.132,0.211,0.202,0.211,0.117,0.075,northeast,2.5,No
2023/05/16,17:20,0.147,0.132,0.210,0.204,0.210,0.117,0.075,north-northeast,2.7,No
2023/05/16,17:30,0.146,0.131,0.211,0.202,0.208,0.118,0.075,north,2.6,No
2023/05/16,17:40,0.146,0.131,0.210,0.204,0.212,0.117,0.075,north,3.0,No
2023/05/16,17:50,0.147,0.131,0.210,0.203,0.208,0.118,0.075,north-northeast,3.2,No
2023/05/16,18:00,0.147,0.132,0.209,0.204,0.211,0.117,0.076,north,3.4,No
2023/05/16,18:10,0.146,0.131,0.210,0.202,0.208,0.117,0.074,north,2.9,No
2023/05/16,18:20,0.146,0.133,0.210,0.204,0.211,0.117,0.075,north-northwest,2.2,No
2023/05/16,18:30,0.146,0.133,0.210,0.202,0.210,0.117,0.075,north-northwest,1.7,No
2023/05/16,18:40,0.147,0.132,0.209,0.203,0.210,0.118,0.076,north-northwest,1.7,No
2023/05/16,18:50,0.146,0.132,0.211,0.202,0.210,0.117,0.075,north,1.7,No
2023/05/16,19:00,0.147,0.132,0.211,0.203,0.210,0.118,0.075,north-northwest,1.9,No
2023/05/16,19:10,0.146,0.133,0.212,0.203,0.211,0.117,0.076,north-northwest,2.7,No
2023/05/16,19:20,0.148,0.133,0.210,0.204,0.212,0.117,0.075,north-northwest,2.5,No
2023/05/16,19:30,0.146,0.132,0.211,0.203,0.209,0.117,0.075,north-northwest,2.2,No
2023/05/16,19:40,0.147,0.132,0.210,0.203,0.211,0.118,0.075,northwest,1.7,No
2023/05/16,19:50,0.146,0.132,0.211,0.203,0.209,0.117,0.076,northwest,1.8,No
2023/05/16,20:00,0.147,0.132,0.210,0.204,0.212,0.118,0.075,northwest,1.8,No
2023/05/16,20:10,0.146,0.132,0.210,0.202,0.209,0.117,0.075,west-southwest,0.8,No
2023/05/16,20:20,0.146,0.133,0.212,0.205,0.210,0.118,0.075,-,CALM,No
2023/05/16,20:30,0.147,0.132,0.210,0.203,0.209,0.118,0.076,-,CALM,No
2023/05/16,20:40,0.148,0.133,0.211,0.203,0.211,0.117,0.075,-,CALM,No
2023/05/16,20:50,0.146,0.132,0.211,0.204,0.209,0.118,0.076,north-northwest,1.3,No
2023/05/16,21:00,0.146,0.133,0.210,0.203,0.211,0.118,0.075,-,CALM,No
2023/05/16,21:10,0.147,0.133,0.212,0.203,0.209,0.118,0.076,-,CALM,No
2023/05/16,21:20,0.147,0.132,0.211,0.205,0.211,0.118,0.075,-,CALM,No
2023/05/16,21:30,0.147,0.133,0.211,0.203,0.211,0.118,0.076,north-northeast,0.6,No
2023/05/16,21:40,0.147,0.132,0.211,0.204,0.209,0.117,0.076,north,0.6,No
2023/05/16,21:50,0.148,0.133,0.211,0.203,0.211,0.118,0.075,north-northwest,0.6,No
2023/05/16,22:00,0.147,0.132,0.210,0.203,0.209,0.117,0.075,north,1.3,No
2023/05/16,22:10,0.147,0.133,0.212,0.204,0.211,0.119,0.075,north-northwest,1.2,No
2023/05/16,22:20,0.147,0.133,0.210,0.203,0.209,0.118,0.075,north-northwest,0.8,No
2023/05/16,22:30,0.146,0.131,0.211,0.204,0.210,0.118,0.075,-,CALM,No
2023/05/16,22:40,0.147,0.132,0.211,0.203,0.210,0.118,0.075,-,CALM,No
2023/05/16,22:50,0.147,0.133,0.212,0.203,0.210,0.117,0.076,south-southwest,0.6,No
2023/05/16,23:00,0.148,0.132,0.211,0.203,0.211,0.118,0.076,-,CALM,No
2023/05/16,23:10,-,-,-,-,-,-,-,-,-,-
2023/05/16,23:20,0.147,0.133,0.211,0.205,0.212,0.117,0.076,-,CALM,No
2023/05/16,23:30,0.147,0.132,0.212,0.203,0.211,0.118,0.076,south-southwest,1.0,No
2023/05/16,23:40,0.147,0.132,0.211,0.204,0.211,0.118,0.076,south,1.1,No
2023/05/16,23:50,0.147,0.132,0.211,0.204,0.210,0.118,0.076,south,1.5,No
